カタログに戻る

CZ-4 DEB

運用中SSO
NORAD 26119·DEBRIS·🇨🇳 China

打ち上げ Oct 14, 1999 から Taiyuan Satellite Launch Center

Loading…

次のパス (今後24時間)

TLE

最新Source: Space-Track

元期: Sep 14, 2026, 11:51 UTC

1 26119U 99057F   26257.49401471  .00000186  00000-0  18179-3 0  9995
2 26119  99.3746 146.5964 0486541 286.1375 255.9208 13.47579578297807

AllMySatでCZ-4 DEBをリアルタイム追跡

Download on the App Store